Weather in Karakol

Russia / Altai Republic     51°17′24″N   84°34′58″E
temp.,
°C
wind,
m/s
gust,
m/s
humid.,
%
clouds,
%
prec.,
mm/h
press.,
hPa
HPBL,
m
8 march, mon
mon801:00−8ssw2379100 0.0 102336
04:00−9ssw2368100 0.0 102230
07:00−10ssw336282 0.0 102229
10:00−6ssw347013 0.0 1018133
13:000ssw487324 0.0 1015974
16:000ssw3128089 0.0 10141360
19:00−5ssw339285 0.0 101665
22:00−7ssw339595 0.0 101769
9 march, tue
tue901:00−8sw339487 0.1 102077
04:00−9sw239487 0.1 102466
07:00−10wsw129692 0.4 102825
10:00−7sw229390 0.0 1029139
13:00−3ssw247868 0.1 10281027
16:00−2ssw257472 0.0 10261123
19:00−7sw128859 0.0 102622
22:00−9sw238744 0.0 102627
10 march, wed
wed1001:00−10sw339039 0.0 102536
04:00−10ssw33886 0.0 102440
07:00−10ssw23875 0.0 102432
10:00−6s33870 0.0 1022121
13:00−1s24854 0.0 1018390
16:000s24880 0.0 1016433
19:00−3s338717 0.0 101445
22:00−5ssw4473100 0.0 101476
11 march, thu
thu1101:00−5s467190 0.0 101296
04:00−5ssw467271 0.0 1012111
07:00−6sw338739 0.0 101348
10:00−2sw2390100 0.0 1015177
13:00−1nne0198100 0.8 1017268
16:00−3nw1296100 2.4 1019236
19:00−6sw1195100 3.9 102271
22:00−10sw3387100 0.0 102554
12 march, fri
fri1201:00−11ssw337051 0.0 102456
04:00−11ssw347567 0.0 102275
07:00−12ssw347242 0.0 102172
10:00−7ssw4186982 0.0 10191741
13:00−5sw4157991 0.1 10191734
16:00−5sw31482100 0.6 10191700
19:00−8n1198100 1.7 101971
22:00−12n1296100 2.3 1021102